STARLINK-36054

Last updated on Mon Dec 15 2025 00:02:11 GMT+0000 (Coordinated Universal Time)

1 66812U 25278X 25348.25003472 -.01349942 00000+0 -70816-2 0 9999 2 66812 42.9974 242.7157 0001803 278.5976 143.4871 15.82718578 3209
UTC large
Height (km)
Speed (km/s)
/
Latitude / Longitude
Inclination (degrees)
Orbital Period (minutes)
Azimuth
Elevation
Range (km)
Doppler Factor

Next 0 passes for location: London (51.5072 / 0.1276)

Sorry there are no passes over London.